loading
|
Showing default

COSMOS 2576, 59773

Orbit data source: Space-Track

COSMOS 2576, 59773 is a payload satellite owned by TS VS RF (CIS) in LEO that was launched on Thu, 16 May 2024 UTC via a SOYUZ-2-1B launch vehicle from the Plesetsk Missile And Space Complex (PKMTR). Payloads include a variety of satellites, spacecraft, and rockets equipped with specific instruments for various scientific and technological missions. These include communications satellites like Starlink; space stations such as the ISS; scientific satellites like the Hubble; Earth observation satellites from companies like Planet Labs, Umbra, and HawkEye 360; GPS; miniature CubeSats for education and research; and military/defense satellites.

Loading next visibility...
Next conjunction unknown
Loading greatness...
COSMOS 2576 details
Identifier
59773, 2024-092A
Orbit
LEO
Last TLE update18 hours ago
Origin
Flag of CISTS VS RF (CIS)
ManufacturerLavochkin
MissionOperational spacecraft
Bus & MotorKARAT-200, Unknown motor
Mass~500 kg wet, ~500 kg dry
Launch date (UTC)
2024-05-16 (5 months ago)
Launch vehicle
SOYUZ-2-1B
Launch site
Plesetsk Missile And Space Complex (PKMTR)
Object type
Payload
Rocket body
Debris
Shape & HBRUnknown
Radar Cross SectionLarge (>1 m²)

Expand to show TLE details & history

TLE from 18 hours ago
0 COSMOS 2576
1 59773U 24092A   24287.88194819  .00043237  00000-0  11298-2 0  9991
2 59773  97.2320  38.2426 0009002 214.7874 145.2785 15.38608861 23075
Epoch: 2024-10-13T21:10Z
Definitive object data (Epoch: 2024-10-13T21:10:00.323Z)
Latitude0.00005°
Longitude57.82418°
Altitude458.398 km
Speed7.635 km/s
True Right ascension02h 32m 58s
True Declination0° 00' 00"
Sunlit
Object was in full shadow at TLE epoch
Predictive object data (real-time)
Latitude-54.40349°
Longitude68.73787°
Altitude471.53 km
Speed7.629 km/s
Apparent Right ascension00h 27m 07s
Apparent Declination-53° 46' 52"
Sunlit
Object is in full shadow
Predictive observer data (real-time)
Local Sidereal Time10:13:44
Azimuth227.078° WSW
Elevation-63.67°
Doppler factor1
Orbital elements
Apogee453.3 km
Perigee441.012 km
Semi-major axis6,825.293 km
Eccentricity0.0009002
Inclination97.232°
RAAN38.2426°
Arg. of periapsis214.7874°
True anomaly145.3372°
Mean anomaly145.2785°
Eccentric anomaly145.30786°
Mean motion3.84912 °/min
BSTAR0.0011298
Period93.53 mins
No data available

COSMOS 2576 Visibility forecast

Observer location: 39.9160978°, -105.1181434

Span
Click to sort rows by Start time (UTC) header in descending order
Start Az.
Max El. time (UTC)
Max El. Az.
Max El.
End time (UTC)
End Az.
4 mins2024-10-14 19:35:30.416Z50.038° ENE2024-10-14 19:37:30.416Z87.448° E17.23°2024-10-14 19:39:30.416Z130.601° SE
5 mins2024-10-15 07:38:30.416Z172.043° S2024-10-15 07:40:30.416Z206.767° SW44.075°2024-10-15 07:43:30.416Z345.548° N